Location: Newark
(52.3735°N, 16.9806°E)
Time: 20:14:43
(UTC+00:00)

Envisat - Pass Details

Date: 24 September 2021
Orbit: 764 x 766 km, 98.2° (Epoch: 15 October)

Event Time Altitude Azimuth Distance (km) Brightness Sun altitude
Rises 02:52:35 0° 25° (NNE) 3,245 7.0 -17.0°
Reaches altitude 10° 02:55:34 10° 43° (NE) 2,312 6.5 -16.6°
Maximum altitude 02:59:11 19° 88° (E) 1,745 5.8 -16.1°
Drops below altitude 10° 03:02:48 10° 134° (SE) 2,299 5.8 -15.6°
Sets 03:05:44 0° 152° (SSE) 3,220 6.3 -15.2°
